Location: Rathdrum
(47.8130°N, 116.8960°W)
Time: 05:13:49
(UTC-07:00)

Amateur Radio Satellites - All Passes

Search period start: 01 October 2014 04:43
Search period end: 02 October 2014 04:43
Location: Rathdrum, 47.8130°N, 116.8960°W

Satellite Date Start Highest point End Downlink Frequencies (MHz)
Time Altitude Azimuth
Uosat F 01 Oct 04:48:58 04:53:42 39° 98° (E) 04:58:25 435.120 FM
JAS-2 01 Oct 04:55:49 04:59:29 15° 86° (E) 05:03:21 435.800 - 435.900 CW/SSB, 435.910 FM
SO-50 01 Oct 05:00:14 05:04:13 26° 245° (WSW) 05:08:12 436.795 FM
AO-27 01 Oct 05:07:50 05:10:36 15° 306° (NW) 05:13:21 436.795 MHz FM
AO-Echo 01 Oct 05:08:54 05:10:17 11° 307° (NW) 05:11:41 ?
STRAND 1 01 Oct 05:09:26 05:12:42 17° 57° (ENE) 05:15:58 ?
UOSAT-12 01 Oct 05:27:06 05:31:52 78° 51° (NE) 05:36:33 437.025 FM, 437.400 FM
Gurwin Techsat 1B 01 Oct 05:32:29 05:35:48 17° 304° (NW) 05:39:08 435.225 FM
AO-7 01 Oct 05:35:04 05:43:25 84° 109° (ESE) 05:51:45 29.400 - 29.500 MHz
Hamsat 01 Oct 05:37:37 05:40:07 15° 89° (E) 05:42:36 145.90 MHz
ISS 01 Oct 05:42:56 05:43:43 11° 227° (SW) 05:44:31 145.800 FM
OPAL 01 Oct 05:45:34 05:49:51 25° 264° (W) 05:54:09 ?
MaSat-1 01 Oct 05:50:21 05:55:09 65° 116° (ESE) 05:59:40 437.345 MHz
TMSAT-1 01 Oct 06:01:46 06:04:14 13° 307° (NW) 06:06:41 436.925 FM
Uosat F 01 Oct 06:27:59 06:32:23 31° 296° (WNW) 06:36:47 435.120 FM
JAS-2 01 Oct 06:38:49 06:45:24 75° 103° (ESE) 06:52:46 435.800 - 435.900 CW/SSB, 435.910 FM
STRAND 1 01 Oct 06:46:10 06:51:16 81° 256° (WSW) 06:56:25 ?
RS-15 01 Oct 06:50:55 07:00:29 33° 354° (N) 07:10:14 29.354 - 29.394 USB, Beacon 29.352 USB
UOSAT-12 01 Oct 07:08:29 07:11:26 17° 250° (WSW) 07:14:20 437.025 FM, 437.400 FM
Hamsat 01 Oct 07:12:19 07:16:28 57° 287° (WNW) 07:20:34 145.90 MHz
MaSat-1 01 Oct 07:28:15 07:31:59 22° 314° (NW) 07:35:30 437.345 MHz
AO-7 01 Oct 07:28:41 07:35:24 29° 310° (NW) 07:42:06 29.400 - 29.500 MHz
SO-67 01 Oct 07:43:16 07:46:37 46° 99° (E) 07:49:57 435.3500 MHz FM
PCSat 01 Oct 08:11:09 08:12:28 11° 101° (E) 08:13:48 145.825 MHz
JAS-2 01 Oct 08:24:49 08:30:00 26° 301° (WNW) 08:35:38 435.800 - 435.900 CW/SSB, 435.910 FM
STRAND 1 01 Oct 08:29:43 08:31:18 11° 274° (W) 08:32:53 ?
RS-15 01 Oct 09:06:04 09:16:26 43° 28° (NNE) 09:27:04 29.354 - 29.394 USB, Beacon 29.352 USB
SO-67 01 Oct 09:17:25 09:19:17 14° 297° (WNW) 09:21:08 435.3500 MHz FM
Sapphire 01 Oct 09:24:21 09:29:24 41° 114° (ESE) 09:34:28 437.095 MHz 1200 baud AX-25 AFSK
Oscar 11 01 Oct 09:31:26 09:34:06 16° 90° (E) 09:36:45 145.825 FM, Beacon 2401.500 USB
HO-68 01 Oct 09:39:28 09:46:31 54° 101° (E) 09:53:31 435.675 MHz FM
PCSat 01 Oct 09:49:30 09:54:52 69° 120° (ESE) 10:00:17 145.825 MHz
FUNcube-1 01 Oct 09:56:46 09:59:01 13° 87° (E) 10:01:14 145.950 - 145.970 MHz USB
UKube-1 01 Oct 10:00:12 10:04:15 36° 98° (E) 10:08:16 145.840 MHz, 145.915 MHz
ZACube-1 01 Oct 10:40:35 10:44:48 35° 96° (E) 10:48:55 437.345 MHz
Oscar 11 01 Oct 11:06:25 11:10:41 58° 288° (WNW) 11:14:55 145.825 FM, Beacon 2401.500 USB
Sapphire 01 Oct 11:07:48 11:12:52 39° 315° (NW) 11:17:58 437.095 MHz 1200 baud AX-25 AFSK
RS-15 01 Oct 11:18:55 11:30:02 84° 236° (SW) 11:41:36 29.354 - 29.394 USB, Beacon 29.352 USB
Oscar 16 01 Oct 11:24:55 11:25:45 10° 51° (NE) 11:26:35 437.025 USB, Beacon 2401.1428
JAS-1B 01 Oct 11:25:56 11:27:20 11° 48° (NE) 11:28:41 435.800 - 435.900 CW/SSB
HO-68 01 Oct 11:27:34 11:34:00 37° 301° (WNW) 11:40:26 435.675 MHz FM
FUNcube-1 01 Oct 11:31:23 11:35:59 75° 286° (WNW) 11:40:26 145.950 - 145.970 MHz USB
PCSat 01 Oct 11:34:11 11:38:47 27° 321° (NW) 11:43:24 145.825 MHz
UKube-1 01 Oct 11:36:39 11:40:19 27° 296° (WNW) 11:43:59 145.840 MHz, 145.915 MHz
ZACube-1 01 Oct 12:17:10 12:21:06 29° 295° (WNW) 12:24:58 437.345 MHz
Oscar 19 01 Oct 12:18:49 12:23:07 27° 62° (ENE) 12:27:25 437.125 CW, 437.150 USB
ITAMSAT 1 01 Oct 12:32:43 12:36:02 17° 56° (ENE) 12:39:21 435.822 SSB
Uribyol 2 01 Oct 12:33:16 12:36:46 19° 57° (ENE) 12:40:16 436.500 FM
Sapphire 01 Oct 12:55:13 12:57:52 14° 338° (NNW) 13:00:32 437.095 MHz 1200 baud AX-25 AFSK
Oscar 16 01 Oct 12:58:58 13:04:03 57° 70° (ENE) 13:09:09 437.025 USB, Beacon 2401.1428
AO-7 01 Oct 12:59:52 13:03:01 13° 32° (NNE) 13:06:09 29.400 - 29.500 MHz
AO-Echo 01 Oct 13:06:07 13:10:15 32° 65° (ENE) 13:14:27 ?
AO-27 01 Oct 13:09:39 13:14:14 33° 64° (ENE) 13:18:52 436.795 MHz FM
JAS-1B 01 Oct 13:09:48 13:16:49 52° 68° (ENE) 13:22:49 435.800 - 435.900 CW/SSB
FUNcube-1 01 Oct 13:10:12 13:11:32 11° 305° (NW) 13:12:51 145.950 - 145.970 MHz USB
PCSat 01 Oct 13:22:36 13:24:10 11° 346° (NNW) 13:25:44 145.825 MHz
RS-15 01 Oct 13:32:33 13:40:49 25° 258° (WSW) 13:49:21 29.354 - 29.394 USB, Beacon 29.352 USB
Gurwin Techsat 1B 01 Oct 13:36:56 13:41:29 30° 63° (ENE) 13:46:03 435.225 FM
Oscar 19 01 Oct 13:57:11 14:02:12 49° 261° (W) 14:07:15 437.125 CW, 437.150 USB
MaSat-1 01 Oct 14:02:40 14:05:50 27° 49° (NE) 14:08:36 437.345 MHz
TMSAT-1 01 Oct 14:04:55 14:09:45 38° 66° (ENE) 14:14:37 436.925 FM
ITAMSAT 1 01 Oct 14:09:42 14:14:53 82° 255° (WSW) 14:20:08 435.822 SSB
Uribyol 2 01 Oct 14:10:28 14:15:39 77° 256° (WSW) 14:20:54 436.500 FM
Saudisat 1A 01 Oct 14:13:19 14:17:36 53° 122° (ESE) 14:21:54 436.775 MHz
Uosat F 01 Oct 14:30:14 14:32:33 13° 54° (NE) 14:34:52 435.120 FM
Oscar 16 01 Oct 14:39:48 14:43:46 22° 268° (W) 14:47:45 437.025 USB, Beacon 2401.1428
Oscar 10/S400 01 Oct 14:40:44 14:54:41 23° 145° (SE) 15:11:37 145.825 - 145.975 CW/USB, Beacon 145.810 USB
AO-Echo 01 Oct 14:44:47 14:49:01 33° 264° (W) 14:53:19 ?
AO-7 01 Oct 14:46:04 14:53:35 40° 56° (NE) 15:01:05 29.400 - 29.500 MHz
AO-27 01 Oct 14:48:53 14:53:41 38° 263° (W) 14:58:33 436.795 MHz FM
JAS-1B 01 Oct 15:01:09 15:07:40 33° 264° (W) 15:13:22 435.800 - 435.900 CW/SSB
PCSat 01 Oct 15:08:50 15:10:16 11° 13° (NNE) 15:11:43 145.825 MHz
Gurwin Techsat 1B 01 Oct 15:16:13 15:21:17 45° 262° (W) 15:26:23 435.225 FM
MaSat-1 01 Oct 15:39:27 15:42:06 21° 253° (WSW) 15:44:28 437.345 MHz
TMSAT-1 01 Oct 15:44:55 15:49:42 34° 264° (W) 15:54:32 436.925 FM
ITAMSAT 1 01 Oct 15:53:20 15:55:13 12° 274° (W) 15:57:06 435.822 SSB
Saudisat 1A 01 Oct 15:53:38 15:57:26 28° 322° (NW) 16:01:16 436.775 MHz
Uribyol 2 01 Oct 15:54:39 15:56:01 11° 275° (W) 15:57:23 436.500 FM
Uosat F 01 Oct 16:05:32 16:10:31 78° 73° (ENE) 16:15:33 435.120 FM
Sapphire 01 Oct 16:25:47 16:29:40 19° 32° (NNE) 16:33:32 437.095 MHz 1200 baud AX-25 AFSK
Hamsat 01 Oct 16:34:15 16:37:16 19° 62° (ENE) 16:40:16 145.90 MHz
AO-7 01 Oct 16:37:59 16:46:07 58° 257° (WSW) 16:54:17 29.400 - 29.500 MHz
PCSat 01 Oct 16:51:08 16:55:42 26° 38° (NE) 17:00:14 145.825 MHz
KITSAT 1 01 Oct 16:54:43 17:02:26 51° 115° (ESE) 17:10:09 435.175 FM
JAS-2 01 Oct 16:55:55 17:00:48 42° 66° (ENE) 17:06:01 435.800 - 435.900 CW/SSB, 435.910 FM
Saudisat 1A 01 Oct 17:37:30 17:38:29 11° 346° (NNW) 17:39:28 436.775 MHz
Uosat F 01 Oct 17:47:05 17:49:55 15° 271° (W) 17:52:46 435.120 FM
OPAL 01 Oct 17:50:51 17:55:57 65° 104° (ESE) 18:00:56 ?
Sapphire 01 Oct 18:08:37 18:14:05 72° 54° (NE) 18:19:30 437.095 MHz 1200 baud AX-25 AFSK
Hamsat 01 Oct 18:08:38 18:12:52 53° 260° (W) 18:17:06 145.90 MHz
SO-67 01 Oct 18:19:32 18:22:29 27° 69° (ENE) 18:25:26 435.3500 MHz FM
HO-68 01 Oct 18:28:17 18:32:01 15° 44° (NE) 18:35:45 435.675 MHz FM
PCSat 01 Oct 18:34:13 18:39:39 73° 240° (WSW) 18:45:02 145.825 MHz
AO-7 01 Oct 18:38:22 18:40:46 11° 278° (W) 18:43:10 29.400 - 29.500 MHz
JAS-2 01 Oct 18:41:41 18:46:10 29° 267° (W) 18:50:53 435.800 - 435.900 CW/SSB, 435.910 FM
KITSAT 1 01 Oct 18:50:06 18:57:55 50° 317° (NW) 19:05:46 435.175 FM
STRAND 1 01 Oct 18:53:44 18:58:04 27° 94° (E) 19:02:24 ?
SO-50 01 Oct 19:17:36 19:21:55 47° 121° (ESE) 19:26:22 436.795 FM
OPAL 01 Oct 19:30:34 19:34:23 22° 304° (WNW) 19:38:09 ?
SO-67 01 Oct 19:52:47 19:55:30 21° 266° (W) 19:58:14 435.3500 MHz FM
Sapphire 01 Oct 19:53:02 19:56:57 21° 253° (WSW) 20:00:52 437.095 MHz 1200 baud AX-25 AFSK
HO-68 01 Oct 20:11:21 20:18:17 58° 65° (ENE) 20:25:16 435.675 MHz FM
PCSat 01 Oct 20:20:18 20:22:05 12° 258° (WSW) 20:23:52 145.825 MHz
Oscar 11 01 Oct 20:29:44 20:32:58 21° 63° (ENE) 20:36:12 145.825 FM, Beacon 2401.500 USB
STRAND 1 01 Oct 20:32:33 20:37:28 46° 292° (WNW) 20:42:22 ?
KITSAT 1 01 Oct 20:49:12 20:55:27 24° 344° (NNW) 21:01:43 435.175 FM
FUNcube-1 01 Oct 20:56:11 20:59:18 18° 60° (ENE) 21:02:27 145.950 - 145.970 MHz USB
Saudisat 1A 01 Oct 20:57:44 21:01:19 23° 35° (NE) 21:04:53 436.775 MHz
SO-50 01 Oct 20:58:36 21:02:40 31° 322° (NW) 21:06:51 436.795 FM
UKube-1 01 Oct 20:58:48 21:02:59 49° 70° (ENE) 21:07:11 145.840 MHz, 145.915 MHz
UOSAT-12 01 Oct 21:20:57 21:25:34 68° 124° (SE) 21:30:17 437.025 FM, 437.400 FM
ZACube-1 01 Oct 21:40:01 21:44:21 44° 69° (ENE) 21:48:45 437.345 MHz
HO-68 01 Oct 22:00:02 22:06:20 33° 265° (W) 22:12:42 435.675 MHz FM
Oscar 11 01 Oct 22:04:36 22:08:50 49° 261° (W) 22:13:05 145.825 FM, Beacon 2401.500 USB
ISS 01 Oct 22:24:48 22:27:55 39° 146° (SE) 22:31:04 145.800 FM
FUNcube-1 01 Oct 22:30:42 22:35:13 63° 259° (W) 22:39:50 145.950 - 145.970 MHz USB
UKube-1 01 Oct 22:36:20 22:39:27 19° 268° (W) 22:42:35 145.840 MHz, 145.915 MHz
Saudisat 1A 01 Oct 22:36:55 22:41:20 70° 235° (SW) 22:45:43 436.775 MHz
SO-50 01 Oct 22:42:49 22:44:42 12° 345° (NNW) 22:46:37 436.795 FM
KITSAT 1 01 Oct 22:47:49 22:54:03 23° 15° (NNE) 23:00:15 435.175 FM
UOSAT-12 01 Oct 23:02:13 23:06:09 26° 325° (NW) 23:10:08 437.025 FM, 437.400 FM
ZACube-1 01 Oct 23:17:16 23:20:57 24° 268° (W) 23:24:41 437.345 MHz
ISS 02 Oct 00:01:17 00:04:34 55° 345° (NNW) 00:07:52 145.800 FM
SO-50 02 Oct 00:25:58 00:27:25 11° 11° (N) 00:28:51 436.795 FM
KITSAT 1 02 Oct 00:43:49 00:51:38 49° 42° (NE) 00:59:24 435.175 FM
UOSAT-12 02 Oct 00:46:25 00:47:57 11° 349° (N) 00:49:29 437.025 FM, 437.400 FM
Oscar 16 02 Oct 01:08:34 01:11:34 15° 88° (E) 01:14:32 437.025 USB, Beacon 2401.1428
ISS 02 Oct 01:38:26 01:41:38 42° 5° (N) 01:44:49 145.800 FM
RS-15 02 Oct 01:46:50 01:56:57 45° 111° (ESE) 02:07:00 29.354 - 29.394 USB, Beacon 29.352 USB
Oscar 19 02 Oct 02:05:10 02:10:08 46° 99° (E) 02:15:02 437.125 CW, 437.150 USB
SO-50 02 Oct 02:05:41 02:09:39 25° 34° (NE) 02:13:39 436.795 FM
ITAMSAT 1 02 Oct 02:19:32 02:23:59 28° 94° (E) 02:28:26 435.822 SSB
TMSAT-1 02 Oct 02:19:48 02:20:58 11° 84° (E) 02:22:09 436.925 FM
Uribyol 2 02 Oct 02:20:05 02:24:39 30° 95° (E) 02:29:11 436.500 FM
UOSAT-12 02 Oct 02:28:21 02:30:14 12° 14° (NNE) 02:32:06 437.025 FM, 437.400 FM
KITSAT 1 02 Oct 02:39:25 02:47:11 53° 245° (WSW) 02:54:55 435.175 FM
JAS-1B 02 Oct 02:40:18 02:45:52 54° 101° (E) 02:51:49 435.800 - 435.900 CW/SSB
Oscar 16 02 Oct 02:46:22 02:51:34 79° 287° (WNW) 02:56:41 437.025 USB, Beacon 2401.1428
AO-Echo 02 Oct 02:47:20 02:52:17 58° 101° (E) 02:57:22 ?
AO-27 02 Oct 02:57:51 03:03:03 59° 101° (ESE) 03:08:12 436.795 MHz FM
ISS 02 Oct 03:15:12 03:18:32 86° 204° (SSW) 03:21:52 145.800 FM
Gurwin Techsat 1B 02 Oct 03:28:34 03:33:49 57° 101° (E) 03:39:02 435.225 FM
OPAL 02 Oct 03:31:24 03:35:46 28° 59° (ENE) 03:40:07 ?
Oscar 19 02 Oct 03:44:56 03:49:17 28° 297° (WNW) 03:53:35 437.125 CW, 437.150 USB
SO-50 02 Oct 03:45:53 03:50:42 74° 235° (SW) 03:55:33 436.795 FM
TMSAT-1 02 Oct 03:56:29 04:01:49 74° 103° (ESE) 04:07:07 436.925 FM
RS-15 02 Oct 03:57:59 04:08:53 66° 316° (NW) 04:19:50 29.354 - 29.394 USB, Beacon 29.352 USB
ITAMSAT 1 02 Oct 03:58:41 04:03:40 46° 292° (WNW) 04:08:38 435.822 SSB
Uribyol 2 02 Oct 03:59:20 04:04:16 43° 293° (WNW) 04:09:10 436.500 FM
UOSAT-12 02 Oct 04:07:43 04:11:54 30° 37° (NE) 04:16:03 437.025 FM, 437.400 FM
Uosat F 02 Oct 04:10:44 04:14:14 19° 91° (E) 04:17:42 435.120 FM
AO-Echo 02 Oct 04:26:53 04:30:42 22° 299° (WNW) 04:34:36 ?
Oscar 16 02 Oct 04:27:32 04:30:05 14° 306° (NW) 04:32:39 437.025 USB, Beacon 2401.1428
JAS-1B 02 Oct 04:31:44 04:36:19 26° 300° (WNW) 04:41:05 435.800 - 435.900 CW/SSB
KITSAT 1 02 Oct 04:40:22 04:40:42 10° 265° (W) 04:41:03 435.175 FM
